Home > Weather > Thule Air Base > Past weeks

Flag for Greenland Past Weather in Thule Air Base, Greenland — Yesterday and Last 2 Weeks

Now
45 °F

Cloudy.


Feels Like: 45 °F
Forecast: 44 / 47 °F
Wind: No wind

Location: Thule A. B.

Current Time: Jul 23, 2016 at 10:12:31 PM

Latest Report: Jul 23, 2016 at 8:58 PM


Visibility: N/A

Pressure: 29.95 "Hg

Humidity: 81%

Dew Point: 39 °F

Location of Thule Air BaseLocation

Past Weather in Thule Air Base — Graph

°F

Thule Air Base Temperature Yesterday

Maximum temperature yesterday: 48 °F (at 9:58 PM)
Minimum temperature yesterday: 45 °F (at 2:58 AM)
Average temperature yesterday: 46 °F

High & Low Weather Summary for the Past Weeks

 TemperatureHumidityPressure
High61 °F (Jul 17, 12:58 PM)93% (Jul 10, 10:58 PM)30.19 "Hg (Jul 10, 10:58 PM)
Low37 °F (Jul 12, 2:58 AM)27% (Jul 17, 12:58 PM)29.37 "Hg (Jul 19, 2:58 PM)
Average45 °F74%29.87 "Hg
* Reported Jul 8 8:58 PM — Jul 23 8:58 PM, Thule Air Base, Weather by CustomWeather, © 2016

Note: Actual official high and low records may vary slightly from our data, if they occured in-between our weather recording intervals... More about our weather records

Advertising

Thule Air Base Weather History for the Previous 24 Hours

Scroll right to see more
 ConditionsComfort  
Time TempWeatherWind HumidityBarometerVisibility
8:58 PM
Sat, Jul 23
45 °FCloudy.No wind81%29.95 "HgN/A
7:58 PM45 °FOvercast.7 mph87%29.96 "HgN/A
6:58 PM45 °FOvercast.1 mph81%29.96 "HgN/A
5:58 PM46 °FBroken clouds.6 mph76%29.96 "HgN/A
4:58 PM46 °FPartly sunny.7 mph76%29.96 "HgN/A
3:58 PM46 °FPartly sunny.6 mph76%29.97 "HgN/A
2:58 PM46 °FSunny.6 mph76%29.96 "HgN/A
1:58 PM46 °FSunny.7 mph71%29.96 "HgN/A
12:58 PM46 °FSunny.6 mph71%29.97 "HgN/A
11:58 AM45 °FSunny.8 mph76%29.97 "HgN/A
10:58 AM45 °FSunny.5 mph76%29.97 "HgN/A
9:58 AM44 °FSunny.8 mph79%29.96 "HgN/A
8:58 AM45 °FSunny.6 mph76%29.96 "HgN/A
7:58 AM45 °FSunny.1 mph76%29.96 "HgN/A
6:58 AM43 °FSunny.5 mph81%29.96 "HgN/A
5:58 AM48 °FSunny.No wind71%29.95 "HgN/A
4:58 AM45 °FSunny.1 mph76%29.94 "HgN/A
3:58 AM45 °FSunny.6 mph76%29.93 "HgN/A
2:58 AM46 °FSunny.No wind71%29.92 "HgN/A
1:58 AM45 °FSunny.No wind76%29.90 "HgN/A
12:58 AM45 °FSunny.5 mph76%29.90 "HgN/A
11:58 PM
Fri, Jul 22
46 °FSunny.2 mph71%29.88 "HgN/A
10:58 PM45 °FSunny.6 mph76%29.87 "HgN/A
Weather by CustomWeather, © 2016

See weather overviewHow to use our weather pages